GW3137 Weather Reports


time (UTC)temp
C
wind
direction
speed
KPH
gust
KPH
rain 1hr
cm
rain 24hr
cm
rain mn
cm
humidity
%
barometer
mb
20260903223704 19 31 3.2 9.7 0.00 0.38 0.18 66 1009.6
20260903223203 19 7 4.8 8.0 0.00 0.41 0.18 68 1009.6
20260903220704 18 44 0.0 3.2 0.00 0.48 0.18 68 1009.7
20260903220204 18 44 1.6 8.0 0.00 0.48 0.18 69 1009.8
20260903213704 17 198 1.6 4.8 0.00 0.56 0.18 68 1009.8
20260903213204 18 266 4.8 11.3 0.00 0.56 0.18 66 1009.8
20260903210704 18 230 3.2 20.9 0.00 0.61 0.18 68 1009.7
20260903203205 19 287 6.4 16.1 0.00 0.64 0.18 62 1009.5
20260903200704 17 279 3.2 11.3 0.00 0.64 0.18 66 1009.5
20260903200204 17 292 4.8 16.1 0.00 0.64 0.18 67 1009.5
20260903193704 17 246 3.2 11.3 0.00 0.71 0.18 68 1009.5
20260903193204 17 185 4.8 19.3 0.00 0.71 0.18 67 1009.5
20260903190704 18 180 3.2 8.0 0.00 0.71 0.18 68 1009.4
20260903190204 17 160 3.2 14.5 0.00 0.71 0.18 69 1009.5
20260903183703 17 244 3.2 8.0 0.00 0.71 0.18 70 1009.5
20260903183204 16 188 3.2 11.3 0.00 0.71 0.18 71 1009.5
20260903180703 16 159 4.8 8.0 0.00 0.71 0.18 73 1009.5
20260903180204 16 163 6.4 14.5 0.00 0.71 0.18 73 1009.4
20260903173704 16 156 4.8 11.3 0.00 0.71 0.18 75 1009.3
20260903170704 16 119 1.6 4.8 0.00 0.71 0.18 81 1009.1
20260903170204 15 61 1.6 11.3 0.00 0.71 0.18 83 1009.1
20260903163704 15 136 4.8 9.7 0.00 0.71 0.18 83 1009.1
20260903163204 15 78 1.6 4.8 0.00 0.71 0.18 83 1009.1
20260903160204 14 163 1.6 11.3 0.00 0.71 0.18 85 1009.2
20260903153703 13 123 3.2 4.8 0.00 0.71 0.18 88 1009.0
20260903153204 13 71 3.2 14.5 0.00 0.71 0.18 88 1008.9
20260903150704 12 104 4.8 11.3 0.00 0.71 0.18 89 1008.9
20260903143704 12 90 4.8 11.3 0.00 0.71 0.18 90 1008.7
20260903143204 12 96 4.8 12.9 0.03 0.71 0.18 90 1008.7
20260903140704 12 103 3.2 12.9 0.05 0.71 0.18 91 1008.7
20260903133703 12 96 3.2 4.8 0.13 0.71 0.18 91 1008.6
20260903133204 12 86 3.2 4.8 0.10 0.69 0.15 91 1008.6
20260903130704 12 129 3.2 4.8 0.13 0.66 0.13 90 1008.5
20260903123704 12 254 1.6 3.2 0.05 0.58 0.05 90 1008.5
20260903123204 12 134 0.0 8.0 0.05 0.58 0.05 89 1008.4
20260903120703 12 220 1.6 4.8 0.00 0.53 0.00 85 1008.2
20260903120204 13 100 0.0 12.9 0.00 0.53 0.00 85 1008.0
20260903113204 13 97 3.2 11.3 0.00 0.53 0.00 86 1007.8
20260903110704 12 77 4.8 11.3 0.00 0.53 0.00 86 1007.8
20260903110204 12 89 3.2 11.3 0.00 0.53 0.00 86 1007.7
20260903103203 12 86 4.8 9.7 0.00 0.53 0.00 87 1007.6
20260903100704 12 85 3.2 4.8 0.00 0.53 0.00 88 1007.7
20260903100204 12 62 3.2 4.8 0.00 0.53 0.00 88 1007.8
20260903093704 13 72 3.2 4.8 0.00 0.53 0.00 86 1007.7
20260903093204 13 108 0.0 1.6 0.00 0.53 0.00 85 1007.8
20260903090704 13 108 1.6 3.2 0.00 0.53 0.00 84 1007.7
20260903090204 13 108 1.6 11.3 0.00 0.53 0.00 84 1007.6
20260903083704 13 124 3.2 4.8 0.00 0.53 0.00 84 1007.5
20260903080704 13 96 3.2 4.8 0.00 0.53 0.00 85 1007.5
20260903080204 13 99 3.2 11.3 0.00 0.53 0.00 85 1007.5
20260903073704 13 78 4.8 9.7 0.00 0.53 0.00 86 1007.5
20260903073204 13 101 4.8 11.3 0.00 0.53 0.00 85 1007.4
20260903070703 13 105 3.2 8.0 0.00 0.53 0.00 83 1007.2
20260903070205 13 115 3.2 12.9 0.00 0.53 0.00 82 1007.3
20260903063704 14 122 4.8 12.9 0.00 0.53 0.53 82 1007.2
20260903063204 13 130 8.0 16.1 0.00 0.53 0.53 82 1007.2
20260903060704 13 118 4.8 11.3 0.00 0.53 0.53 85 1007.3
20260903060204 13 106 3.2 9.7 0.00 0.53 0.53 86 1007.3
20260903053703 13 118 4.8 8.0 0.00 0.53 0.53 88 1007.3
20260903050703 13 118 3.2 4.8 0.00 0.53 0.53 89 1007.2
20260903050205 13 90 3.2 4.8 0.00 0.53 0.53 88 1007.3
20260903043704 14 90 3.2 9.7 0.00 0.53 0.53 89 1007.2
20260903043204 14 98 4.8 11.3 0.00 0.53 0.53 89 1007.2
20260903033206 15 110 3.2 12.9 0.00 0.53 0.53 89 1006.5
20260903030203 15 90 3.2 8.0 0.00 0.53 0.53 89 1006.2
20260903023704 15 104 3.2 4.8 0.00 0.53 0.53 85 1005.8
20260903023204 16 112 3.2 14.5 0.00 0.53 0.53 84 1005.8
20260903020703 16 147 4.8 19.3 0.03 0.53 0.53 82 1005.6
20260903013704 16 183 4.8 12.9 0.05 0.53 0.53 87 1005.5
20260903013204 16 176 6.4 24.1 0.08 0.53 0.53 87 1005.5
20260903010704 15 173 8.0 24.1 0.08 0.51 0.51 86 1004.8
20260903010204 15 157 9.7 22.5 0.08 0.51 0.51 86 1004.8
20260903003204 16 222 4.8 19.3 0.03 0.46 0.46 91 1004.8
20260903000703 16 135 1.6 4.8 0.03 0.43 0.43 90 1004.0
20260903000204 16 127 1.6 9.7 0.03 0.43 0.43 90 1004.0
20260902233704 16 132 3.2 11.3 0.10 0.43 0.43 90 1004.0
20260902233204 16 71 4.8 16.1 0.13 0.43 0.43 90 1003.9
20260902230204 16 98 3.2 8.0 0.18 0.41 0.41 90 1004.5